TimeCST,TemperatureF,Dew PointF,Humidity,Sea Level PressureIn,VisibilityMPH,Wind Direction,Wind SpeedMPH,Gust SpeedMPH,PrecipitationIn,Events,Conditions,WindDirDegrees,DateUTC
12:15 AM,24.8,19.4,80,30.02,10.0,Calm,Calm,-,N/A,,Clear,0,2013-01-31 06:15:00
12:35 AM,21.2,17.6,86,30.00,10.0,Calm,Calm,-,N/A,,Clear,0,2013-01-31 06:35:00
1:15 AM,23.0,17.6,80,30.01,10.0,SSW,5.8,-,N/A,,Clear,210,2013-01-31 07:15:00
1:36 AM,24.8,19.4,80,30.01,10.0,SSW,4.6,-,N/A,,Clear,210,2013-01-31 07:36:00
1:55 AM,24.8,19.4,80,30.01,10.0,SSW,4.6,-,N/A,,Clear,210,2013-01-31 07:55:00
2:15 AM,24.8,19.4,80,29.99,10.0,Calm,Calm,-,N/A,,Clear,0,2013-01-31 08:15:00
2:55 AM,21.2,17.6,86,29.99,10.0,SSE,5.8,-,N/A,,Clear,160,2013-01-31 08:55:00
3:15 AM,21.2,17.6,86,29.99,10.0,SSW,4.6,-,N/A,,Clear,200,2013-01-31 09:15:00
3:35 AM,23.0,17.6,80,29.99,10.0,SSW,4.6,-,N/A,,Clear,200,2013-01-31 09:35:00
4:15 AM,23.0,19.4,86,29.99,10.0,SW,3.5,-,N/A,,Clear,220,2013-01-31 10:15:00
4:35 AM,23.0,19.4,86,29.98,10.0,Calm,Calm,-,N/A,,Clear,0,2013-01-31 10:35:00
4:55 AM,21.2,17.6,86,29.98,10.0,South,4.6,-,N/A,,Clear,180,2013-01-31 10:55:00
5:16 AM,21.2,17.6,86,29.99,10.0,South,4.6,-,N/A,,Clear,190,2013-01-31 11:16:00
5:35 AM,23.0,17.6,80,29.99,10.0,SSW,4.6,-,N/A,,Clear,200,2013-01-31 11:35:00
5:55 AM,21.2,17.6,86,29.99,10.0,South,4.6,-,N/A,,Clear,180,2013-01-31 11:55:00
6:35 AM,24.8,19.4,80,29.99,10.0,SSW,5.8,-,N/A,,Clear,200,2013-01-31 12:35:00
7:15 AM,24.8,19.4,80,30.00,10.0,SW,5.8,-,N/A,,Clear,230,2013-01-31 13:15:00
7:36 AM,24.8,19.4,80,30.00,10.0,SW,4.6,-,N/A,,Clear,220,2013-01-31 13:36:00
7:55 AM,26.6,21.2,80,30.01,10.0,SSW,6.9,-,N/A,,Clear,210,2013-01-31 13:55:00
8:15 AM,28.4,21.2,74,30.02,10.0,SW,6.9,-,N/A,,Clear,220,2013-01-31 14:15:00
9:15 AM,33.8,24.8,70,30.04,10.0,SW,5.8,-,N/A,,Clear,220,2013-01-31 15:15:00
9:55 AM,37.4,24.8,60,30.07,10.0,WSW,6.9,-,N/A,,Clear,250,2013-01-31 15:55:00
10:15 AM,39.2,26.6,61,30.09,10.0,West,8.1,-,N/A,,Clear,260,2013-01-31 16:15:00
10:35 AM,41.0,23.0,49,30.09,10.0,West,10.4,-,N/A,,Partly Cloudy,270,2013-01-31 16:35:00
10:56 AM,42.8,24.8,49,30.10,10.0,West,8.1,-,N/A,,Mostly Cloudy,280,2013-01-31 16:56:00
11:15 AM,42.8,26.6,53,30.09,10.0,West,8.1,-,N/A,,Mostly Cloudy,280,2013-01-31 17:15:00
11:35 AM,42.8,26.6,53,30.09,10.0,West,8.1,-,N/A,,Overcast,260,2013-01-31 17:35:00
11:55 AM,44.6,26.6,49,30.10,10.0,West,11.5,-,N/A,,Partly Cloudy,280,2013-01-31 17:55:00
12:15 PM,46.4,26.6,46,30.10,10.0,WNW,10.4,-,N/A,,Clear,290,2013-01-31 18:15:00
12:55 PM,44.6,26.6,49,30.09,10.0,NW,10.4,16.1,N/A,,Clear,310,2013-01-31 18:55:00
1:15 PM,46.4,26.6,46,30.10,10.0,NW,9.2,19.6,N/A,,Clear,310,2013-01-31 19:15:00
1:35 PM,46.4,26.6,46,30.10,10.0,NNW,13.8,19.6,N/A,,Clear,340,2013-01-31 19:35:00
1:55 PM,44.6,26.6,49,30.11,10.0,NNW,11.5,-,N/A,,Clear,330,2013-01-31 19:55:00
2:15 PM,42.8,24.8,49,30.11,10.0,NNW,13.8,18.4,N/A,,Partly Cloudy,340,2013-01-31 20:15:00
3:15 PM,39.2,24.8,56,30.14,10.0,NNW,12.7,19.6,N/A,,Scattered Clouds,340,2013-01-31 21:15:00
3:35 PM,39.2,24.8,56,30.18,10.0,NNW,13.8,17.3,N/A,,Scattered Clouds,340,2013-01-31 21:35:00
3:55 PM,37.4,23.0,56,30.19,10.0,North,15.0,-,N/A,,Mostly Cloudy,360,2013-01-31 21:55:00
4:15 PM,35.6,23.0,60,30.19,10.0,North,11.5,-,N/A,,Overcast,350,2013-01-31 22:15:00
4:35 PM,33.8,23.0,65,30.22,10.0,North,18.4,24.2,N/A,,Overcast,350,2013-01-31 22:35:00
4:55 PM,32.0,21.2,64,30.23,10.0,North,18.4,-,N/A,,Overcast,360,2013-01-31 22:55:00
5:15 PM,30.2,19.4,64,30.22,5.0,North,13.8,21.9,N/A,,Overcast,360,2013-01-31 23:15:00
5:35 PM,28.4,21.2,74,30.24,10.0,North,8.1,19.6,N/A,,Overcast,350,2013-01-31 23:35:00
6:15 PM,28.4,19.4,69,30.27,10.0,NNW,6.9,-,N/A,,Overcast,340,2013-02-01 00:15:00
6:35 PM,28.4,19.4,69,30.28,10.0,North,10.4,-,N/A,,Mostly Cloudy,360,2013-02-01 00:35:00
6:55 PM,28.4,19.4,69,30.29,10.0,North,9.2,-,N/A,,Mostly Cloudy,360,2013-02-01 00:55:00
7:16 PM,26.6,19.4,74,30.30,10.0,North,9.2,-,N/A,,Mostly Cloudy,350,2013-02-01 01:16:00
7:35 PM,26.6,14.0,59,30.32,10.0,NNW,9.2,-,N/A,,Mostly Cloudy,330,2013-02-01 01:35:00
7:55 PM,24.8,12.2,59,30.33,10.0,NNW,8.1,-,N/A,,Partly Cloudy,330,2013-02-01 01:55:00
8:35 PM,24.8,12.2,59,30.35,10.0,NNW,9.2,-,N/A,,Clear,340,2013-02-01 02:35:00
8:55 PM,24.8,12.2,59,30.37,10.0,North,8.1,-,N/A,,Clear,350,2013-02-01 02:55:00
9:15 PM,23.0,12.2,63,30.37,10.0,NNW,5.8,-,N/A,,Clear,340,2013-02-01 03:15:00
9:35 PM,23.0,10.4,59,30.39,10.0,NNW,5.8,-,N/A,,Clear,330,2013-02-01 03:35:00
9:55 PM,23.0,10.4,59,30.38,10.0,NNW,5.8,-,N/A,,Clear,340,2013-02-01 03:55:00
10:15 PM,21.2,10.4,63,30.38,10.0,North,9.2,-,N/A,,Clear,350,2013-02-01 04:15:00
10:55 PM,21.2,8.6,58,30.39,10.0,NNW,5.8,-,N/A,,Clear,340,2013-02-01 04:55:00
11:15 PM,21.2,8.6,58,30.39,10.0,North,8.1,-,N/A,,Clear,350,2013-02-01 05:15:00
11:36 PM,19.4,8.6,63,30.39,10.0,NNW,4.6,-,N/A,,Clear,340,2013-02-01 05:36:00